Glasgow, United Kingdom

4:19 AM GMT on February 10, 2016 (GMT +0000)
Glasgow

Weather History for EGPF - September, 2011

Change the Weather History Date:

Tuesday, September 20, 2011

  Actual Average Record
Temperature  
Mean Temperature 52 °F -  
Max Temperature 57 °F 55 °F 73 °F (1998)
Min Temperature 48 °F 43 °F 33 °F (1997)
Degree Days  
Heating Degree Days 12    
Growing Degree Days 2 (Base 50)    
Moisture  
Dew Point 48 °F    
Average Humidity 83    
Maximum Humidity 94    
Minimum Humidity 67    
Precipitation  
Precipitation 0.00 in - - ()
Sea Level Pressure  
Sea Level Pressure 29.80 in    
Wind  
Wind Speed 11 mph ()    
Max Wind Speed 20 mph    
Max Gust Speed -    
Visibility 6.2 miles    
Events Rain    
Averages and records for this station are not official NWS values.
T = Trace of Precipitation, MM = Missing Value Source: Averaged Metar Reports

Daily Weather History Graph

Daily Weather History Graph

Search for Another Location

Airport or City:

Trip Planner

Search our weather history database for the weather conditions in past years. The results will help you decide how hot, cold, wet, or windy it might be!

Date:

Astronomy

Sep. 20, 2011 Rise Set
Actual Time 6:58 AM BST 7:23 PM BST
Civil Twilight 6:21 AM BST 8:00 PM BST
Nautical Twilight 5:36 AM BST 8:44 PM BST
Astronomical Twilight 4:48 AM BST 9:31 PM BST
Moon 10:59 PM BST (9/20) 3:42 PM BST (9/20)
Length of Visible Light 13h 39m
Length of Day
12h 24m
Waning Gibbous, 51% of the Moon is Illuminated
Sep 20
Waning Gibbous
Sep 20
Last Quarter
Sep 27
New
Oct 4
First Quarter
Oct 12
Full

Hourly Weather History & Observations

Time (BST) Temp. Dew Point Humidity Pressure Visibility Wind Dir Wind Speed Gust Speed Precip Events Conditions
12:20 AM 53.6 °F 51.8 °F 94% 29.68 in 6.2 mi West 6.9 mph - N/A Rain Light Rain
12:50 AM 53.6 °F 51.8 °F 94% 29.71 in 6.2 mi WSW 9.2 mph - N/A   Mostly Cloudy
1:20 AM 53.6 °F 50.0 °F 88% 29.71 in 6.2 mi West 12.7 mph - N/A   Mostly Cloudy
1:50 AM 53.6 °F 50.0 °F 88% 29.71 in 6.2 mi WSW 13.8 mph - N/A   Mostly Cloudy
2:20 AM 53.6 °F 50.0 °F 88% 29.71 in - WSW 12.7 mph - N/A Rain Light Rain
2:50 AM 51.8 °F 48.2 °F 88% 29.74 in 6.2 mi SW 15.0 mph - N/A Rain Light Rain
3:20 AM 50.0 °F 46.4 °F 87% 29.74 in 6.2 mi WSW 9.2 mph - N/A   Mostly Cloudy
3:50 AM 51.8 °F 48.2 °F 88% 29.74 in 6.2 mi WSW 10.4 mph - N/A   Scattered Clouds
4:20 AM 50.0 °F 46.4 °F 87% 29.74 in 6.2 mi WSW 5.8 mph - N/A   Mostly Cloudy
4:50 AM 50.0 °F 46.4 °F 87% 29.77 in 6.2 mi SW 9.2 mph - N/A   Mostly Cloudy
5:20 AM 50.0 °F 48.2 °F 94% 29.77 in 6.2 mi SW 10.4 mph - N/A   Partly Cloudy
5:50 AM 50.0 °F 48.2 °F 94% 29.77 in 6.2 mi WSW 8.1 mph - N/A   Scattered Clouds
6:20 AM 50.0 °F 48.2 °F 94% 29.77 in 6.2 mi WSW 10.4 mph - N/A   Scattered Clouds
6:50 AM 51.8 °F 48.2 °F 88% 29.77 in 6.2 mi SW 10.4 mph - N/A   Scattered Clouds
7:20 AM 50.0 °F 48.2 °F 94% 29.77 in 6.2 mi SW 11.5 mph - N/A   Scattered Clouds
7:50 AM 50.0 °F 48.2 °F 94% 29.80 in 6.2 mi SW 10.4 mph - N/A   Scattered Clouds
8:20 AM 51.8 °F 48.2 °F 88% 29.80 in 6.2 mi SW 6.9 mph - N/A   Scattered Clouds
8:50 AM 53.6 °F 48.2 °F 82% 29.80 in 6.2 mi SW 13.8 mph - N/A   Scattered Clouds
9:20 AM 53.6 °F 50.0 °F 88% 29.83 in 6.2 mi SW 12.7 mph - N/A   Scattered Clouds
9:50 AM 55.4 °F 50.0 °F 82% 29.83 in 6.2 mi SW 12.7 mph - N/A   Scattered Clouds
10:20 AM 55.4 °F 50.0 °F 82% 29.83 in 6.2 mi SW 15.0 mph - N/A   Scattered Clouds
10:50 AM 55.4 °F 50.0 °F 82% 29.83 in 6.2 mi SW 13.8 mph - N/A   Mostly Cloudy
11:20 AM 55.4 °F 50.0 °F 82% 29.83 in 6.2 mi SW 13.8 mph - N/A   Mostly Cloudy
11:50 AM 55.4 °F 48.2 °F 77% 29.83 in 6.2 mi SW 18.4 mph - N/A   Scattered Clouds
12:20 PM 55.4 °F 50.0 °F 82% 29.83 in 6.2 mi SW 13.8 mph - N/A   Scattered Clouds
12:50 PM 55.4 °F 48.2 °F 77% 29.83 in 6.2 mi SW 17.3 mph - N/A   Scattered Clouds
1:20 PM 57.2 °F 50.0 °F 77% 29.83 in 6.2 mi SW 17.3 mph - N/A   Scattered Clouds
1:50 PM 57.2 °F 48.2 °F 72% 29.83 in 6.2 mi SW 18.4 mph - N/A Rain Light Rain
2:20 PM 55.4 °F 48.2 °F 77% 29.83 in 6.2 mi SW 16.1 mph - N/A   Mostly Cloudy
2:50 PM 57.2 °F 48.2 °F 72% 29.83 in 6.2 mi SW 19.6 mph - N/A   Scattered Clouds
3:20 PM 57.2 °F 48.2 °F 72% 29.83 in 6.2 mi SW 16.1 mph - N/A   Scattered Clouds
3:50 PM 55.4 °F 50.0 °F 82% 29.83 in 6.2 mi SW 13.8 mph - N/A   Scattered Clouds
4:20 PM 57.2 °F 46.4 °F 67% 29.83 in 6.2 mi SW 17.3 mph - N/A   Scattered Clouds
4:50 PM 57.2 °F 48.2 °F 72% 29.83 in 6.2 mi SW 13.8 mph - N/A   Scattered Clouds
5:20 PM 55.4 °F 48.2 °F 77% 29.83 in 6.2 mi WSW 13.8 mph - N/A   Scattered Clouds
5:50 PM 55.4 °F 46.4 °F 72% 29.83 in 6.2 mi WSW 11.5 mph - N/A   Scattered Clouds
6:20 PM 55.4 °F 46.4 °F 72% 29.83 in 6.2 mi SW 11.5 mph - N/A   Partly Cloudy
6:50 PM 53.6 °F 46.4 °F 77% 29.83 in - SW 11.5 mph - N/A   Clear
7:20 PM 53.6 °F 46.4 °F 77% 29.83 in 6.2 mi SW 10.4 mph - N/A   Scattered Clouds
7:50 PM 53.6 °F 48.2 °F 82% 29.86 in 6.2 mi WSW 15.0 mph - N/A Rain Light Rain Showers
8:20 PM 51.8 °F 48.2 °F 88% 29.86 in 6.2 mi SW 9.2 mph - N/A   Partly Cloudy
8:50 PM 48.2 °F 44.6 °F 87% 29.86 in 6.2 mi SW 6.9 mph - N/A   Partly Cloudy
9:20 PM 48.2 °F 44.6 °F 87% 29.86 in - WSW 5.8 mph - N/A   Clear
9:50 PM 50.0 °F 46.4 °F 87% 29.83 in - SW 5.8 mph - N/A   Clear
10:20 PM 51.8 °F 48.2 °F 88% 29.83 in 6.2 mi SW 10.4 mph - N/A   Partly Cloudy
10:50 PM 53.6 °F 48.2 °F 82% 29.83 in 6.2 mi SW 10.4 mph - N/A   Mostly Cloudy
11:20 PM 53.6 °F 48.2 °F 82% 29.83 in 6.2 mi SW 11.5 mph - N/A   Scattered Clouds
11:50 PM 53.6 °F 48.2 °F 82% 29.83 in 6.2 mi SW 12.7 mph - N/A   Mostly Cloudy